Flag for Russia Weather past 2 weeks in Pyatigorsk, Russia

Now
64 °F

Clear.


Feels Like: 64 °F
Forecast: 56 / 72 °F
Wind: 1 mph from North

Location: Mineral'Nye Vody

Current Time: May 28, 2015 at 7:37:12 AM

Latest Report: May 28, 2015 at 7:00 AM


Visibility: N/A

Pressure: 29.65 "Hg

Humidity: 83%

Dew point: 59 °F

Location of PyatigorskLocation

Historic Weather in Pyatigorsk — Graph

°F

Pyatigorsk temperature yesterday

Maximum temperature yesterday: 84 °F (at 2:30 PM)
Minimum temperature yesterday: 55 °F (at 3:30 AM)
Average temperature yesterday: 71 °F

Past Weeks' High & Low Weather Summary

 TemperatureHumidityPressure
High84 °F (May 27, 2:30 PM)100% (May 15, 2:00 AM)30.12 "Hg (May 15, 2:00 AM)
Low43 °F (May 18, 4:30 AM)27% (May 22, 3:30 PM)29.65 "Hg (May 28, 3:00 AM)
Average63 °F63%29.96 "Hg
* Reported May 13 6:00 AM — May 28 6:00 AM, Pyatigorsk, Weather by CustomWeather, © 2015

Note: Actual official high and low records may vary slightly from our data, if they occured in-between our weather recording intervals... More about our weather records

Advertising

Pyatigorsk weather history for previous 24 hours

 ConditionsComfort  
Time TempWeatherWind HumidityBarometerVisibility
6:00 AM
Thu, May 28
59 °FClear.3 mph88%29.65 "HgN/A
5:30 AM55 °FFog.No wind94%29.65 "HgN/A
5:00 AM57 °FFog.No wind88%29.65 "HgN/A
4:30 AM57 °FClear.1 mph94%29.65 "HgN/A
4:00 AM55 °FClear.1 mph100%29.65 "HgN/A
3:30 AM59 °FClear.6 mph88%29.68 "HgN/A
3:00 AM57 °FClear.No wind94%29.65 "HgN/A
2:30 AM61 °FClear.3 mph88%29.68 "HgN/A
2:00 AM61 °FClear.No wind88%29.68 "HgN/A
1:30 AM61 °FClear.No wind88%29.68 "HgN/A
1:00 AM63 °FClear.No wind83%29.68 "HgN/A
12:30 AM64 °FClear.No wind78%29.68 "HgN/A
12:00 AM61 °FClear.1 mph88%29.68 "HgN/A
11:30 PM
Wed, May 27
63 °FClear.3 mph83%29.71 "HgN/A
11:00 PM64 °FClear.1 mph78%29.71 "HgN/A
10:30 PM66 °FClear.1 mph73%29.74 "HgN/A
10:00 PM66 °FClear.1 mph73%29.74 "HgN/A
9:30 PM66 °FClear.3 mph73%29.74 "HgN/A
9:00 PM68 °FClear.3 mph64%29.74 "HgN/A
8:30 PM68 °FClear.3 mph69%29.77 "HgN/A
8:00 PM72 °FClear.1 mph61%29.77 "HgN/A
7:30 PM72 °FClear.3 mph65%29.77 "HgN/A
7:00 PM77 °FPartly sunny.1 mph44%29.77 "HgN/A
6:30 PM77 °FBroken clouds.8 mph47%29.77 "HgN/A
6:00 PM81 °FBroken clouds.6 mph42%29.77 "HgN/A
5:30 PM81 °FClear.8 mph39%29.74 "HgN/A
5:00 PM82 °FClear.8 mph37%29.74 "HgN/A
4:30 PM84 °FClear.6 mph33%29.74 "HgN/A
4:00 PM82 °FClear.6 mph35%29.77 "HgN/A
3:30 PM84 °FClear.6 mph33%29.77 "HgN/A
3:00 PM84 °FClear.8 mph33%29.77 "HgN/A
2:30 PM84 °FClear.8 mph33%29.77 "HgN/A
2:00 PM82 °FClear.6 mph32%29.77 "HgN/A
1:30 PM82 °FPassing clouds.6 mph35%29.77 "HgN/A
1:00 PM82 °FClear.6 mph35%29.80 "HgN/A
12:30 PM82 °FClear.8 mph35%29.80 "HgN/A
12:00 PM82 °FClear.6 mph32%29.80 "HgN/A
11:30 AM81 °FClear.6 mph34%29.80 "HgN/A
11:00 AM81 °FClear.8 mph37%29.80 "HgN/A
10:30 AM79 °FClear.8 mph39%29.83 "HgN/A
10:00 AM77 °FClear.8 mph44%29.83 "HgN/A
9:30 AM75 °FClear.8 mph54%29.83 "HgN/A
9:00 AM73 °FClear.8 mph57%29.83 "HgN/A
8:30 AM72 °FClear.10 mph57%29.83 "HgN/A
8:00 AM70 °FClear.8 mph57%29.86 "HgN/A
7:30 AM66 °FClear.10 mph64%29.86 "HgN/A
Weather by CustomWeather, © 2015

See weather overviewHow to use our weather pages